SL-14 R/B

Satellite information

Favourite Embed

Satellite Type and Status

ROCKET BODYIN ORBIT

Key statistics

Satellite SL-14 R/B at a glance.

Uptime

15577

Days in orbit

Revolutions

≈ 14.9

Per day

Orbit

LEO

Low Earth Orbit

Inclination

82.5

Latest

Satellite identification and parameters

Extended collection of information and parameters for SL-14 R/B.

Object identification

Identified? True

Debris? False

Object name: SL-14 R/B

International designator: 1983-037B

Object number (NORAD): 14033

Object ID (CCSDS): 14033

Country: COMMONWEALTH OF INDEPENDENT STATES (CIS)

Current information (Y/N): Y

RCS size: LARGE

Orbital parameters

Period: 96.899 minutes

Inclination: 82.5059 deg

SMA: 6988.329 km

Apoapsis: 621.281 km

Periapsis: 599.108 km

RAAN: 312.2558 deg

Eccentricy: 0.00158637

Argument of periapsis: 320.1041 deg

Mean anomaly: 39.9008 deg

Mean motion: 14.86081763 rev/day

Mean motion (dot): 0.00000833 rev/day2

B* drag term: 0.000092243742 1/REarth

Two-line elements (TLE)

Creation date: Dec. 14, 2025, 6:24 p.m.

Reference frame: TEME

Reference center: EARTH

Epoch: Dec. 14, 2025, 7:38 a.m. UTC

TLE line 0: 0 SL-14 R/B

TLE line 1: 1 14033U 83037B 25348.31825348 .00000833 00000-0 92244-4 0 9997

TLE line 2: 2 14033 82.5059 312.2558 0015864 320.1041 39.9008 14.86081763918666

Live tracking on map

Real-time ground track for satellite SL-14 R/B.

In-orbit conjunctions

A list of the most updated potential collisions computed for object SL-14 R/B.

Target Orbit TCA Probability of collision Miss distance Type
FENGYUN 1C DEB SSO 2025-12-12 12:36:17 0.0003959053 133.0 (m) DEBRIS
NOAA 17 DEB SSO 2025-02-26 07:39:29 0.00204798 21.0 (m) DEBRIS
COSMOS 375 DEB LEO 2025-01-24 01:39:33 0.0005179923 557.0 (m) DEBRIS
FALCON 1 R/B LEO 2024-10-25 14:16:47 0.0001083116 280.0 (m) ROCKET BODY
CZ-6A DEB SSO 2024-08-11 16:41:43 0.0002484967 901.0 (m) DEBRIS

Associated space launch

Tselina-D satellites provided detailed observation of radio sources detected by the smaller Tselina-O satellites as part of the Tselina ELINT system.

SL-14 R/B was lifted into orbit during the mission ‘Tsiklon-3 | Tselina-D 41’, on board a Tsiklon-3 space rocket.

The launch took place on April 23, 1983, 2:30 p.m. from 32/2.

For more information about the launch, click the button.

Launch to space Tsiklon-3 | Tselina-D 41
Tsiklon-3 | Tselina-D 41

Agency: N/A

Status: Launch Successful

Launch date: April 23, 1983, 2:30 p.m. UTC

Rocket: Tsiklon-3

Launch pad: 32/2

Location: Plesetsk Cosmodrome, Russian Federation

...

Latest news about this satellite

There are no fresh news available about this satellite. Check back as we update our databases every day.


Newsletter sign-up

Weekly statistics, charts and insights to help you stay on top of the space industry.